Rantoul, IL

6:28 AM CST on January 19, 2018 (GMT -0600)
Rantoul

Weather History for KTIP - June, 2013

Change the Weather History Date:

Thursday, June 27, 2013

  Actual Average (KCMI) Record (KCMI)
Temperature  
Mean Temperature 80 °F -  
Max Temperature 89 °F 81 °F 93 °F (1998)
Min Temperature 72 °F 60 °F 47 °F (2017)
Cooling Degree Days 16    
Growing Degree Days 30 (Base 50)    
Moisture  
Dew Point 71 °F    
Average Humidity 75    
Maximum Humidity 92    
Minimum Humidity 49    
Precipitation  
Precipitation 0.00 in - - ()
Sea Level Pressure  
Sea Level Pressure 29.80 in    
Wind  
Wind Speed 6 mph (WNW)    
Max Wind Speed 18 mph    
Max Gust Speed 25 mph    
Visibility 7 miles    
Events Rain    
Averages and records for this station are not official NWS values.
T = Trace of Precipitation, MM = Missing Value Source: NWS Daily Summary

Daily Weather History Graph

Daily Weather History Graph

Search for Another Location

Airport or City:

Trip Planner

Search our weather history database for the weather conditions in past years. The results will help you decide how hot, cold, wet, or windy it might be!

Date:

Astronomy

Jun. 27, 2013 Rise Set
Actual Time 5:24 AM CDT 8:26 PM CDT
Civil Twilight 4:51 AM CDT 8:59 PM CDT
Nautical Twilight 4:09 AM CDT 9:41 PM CDT
Astronomical Twilight 3:20 AM CDT 10:30 PM CDT
Moon 11:22 PM CDT (6/27) 10:26 AM CDT (6/27)
Length of Visible Light 16h 07m
Length of Day
15h 01m
Waning Gibbous, 76% of the Moon is Illuminated
Jun 27
Waning Gibbous
Jun 29
Last Quarter
Jul 8
New
Jul 15
First Quarter
Jul 22
Full

Hourly Weather History & Observations

Time (CDT) Temp. Heat Index Dew Point Humidity Pressure Visibility Wind Dir Wind Speed Gust Speed Precip Events Conditions
12:15 AM 75.6 °F - 73.0 °F 92% 29.80 in 4.0 mi SW 3.5 mph - N/A   Clear
12:35 AM 75.9 °F - 73.4 °F 92% 29.79 in 3.0 mi Calm Calm - N/A Rain Light Rain
12:55 AM 76.1 °F - 73.4 °F 91% 29.79 in 3.0 mi Calm Calm - N/A   Scattered Clouds
1:15 AM 75.4 °F - 73.0 °F 92% 29.78 in 2.0 mi WSW 4.6 mph - N/A   Mostly Cloudy
1:35 AM 76.1 °F - 73.6 °F 92% 29.78 in 2.5 mi WSW 4.6 mph - N/A   Mostly Cloudy
1:55 AM 76.1 °F - 73.6 °F 92% 29.79 in 3.0 mi West 3.5 mph - N/A   Scattered Clouds
2:15 AM 75.7 °F - 73.4 °F 92% 29.78 in 2.5 mi West 4.6 mph - N/A   Clear
2:35 AM 75.4 °F - 72.9 °F 92% 29.79 in 2.5 mi West 3.5 mph - N/A   Clear
2:55 AM 75.2 °F - 72.7 °F 92% 29.79 in 3.0 mi West 3.5 mph - N/A   Clear
3:15 AM 75.2 °F - 72.5 °F 91% 29.79 in 3.0 mi West 5.8 mph - N/A   Clear
3:35 AM 75.0 °F - 72.1 °F 91% 29.79 in 5.0 mi West 4.6 mph - N/A   Clear
3:55 AM 74.7 °F - 72.0 °F 91% 29.79 in 4.0 mi West 4.6 mph - N/A   Clear
4:15 AM 74.3 °F - 71.6 °F 91% 29.79 in 3.0 mi West 4.6 mph - N/A   Clear
4:35 AM 73.9 °F - 71.2 °F 91% 29.80 in 4.0 mi West 4.6 mph - N/A   Scattered Clouds
4:55 AM 73.9 °F - 71.1 °F 91% 29.80 in 5.0 mi Calm Calm - N/A   Scattered Clouds
5:15 AM 73.4 °F - 70.7 °F 91% 29.80 in 4.0 mi Calm Calm - N/A   Scattered Clouds
5:35 AM 73.2 °F - 70.2 °F 90% 29.80 in 4.0 mi West 4.6 mph - N/A   Clear
5:55 AM 73.4 °F - 70.3 °F 90% 29.80 in 3.0 mi Calm Calm - N/A   Clear
6:15 AM 73.4 °F - 70.7 °F 91% 29.81 in 3.0 mi WNW 3.5 mph - N/A   Clear
6:35 AM 74.3 °F - 71.6 °F 91% 29.81 in 2.0 mi West 3.5 mph - N/A   Clear
6:55 AM 75.2 °F - 72.0 °F 90% 29.81 in 2.5 mi WNW 3.5 mph - N/A   Clear
7:15 AM 76.1 °F - 72.3 °F 88% 29.81 in 4.0 mi WNW 8.1 mph - N/A   Clear
7:35 AM 77.2 °F - 72.3 °F 85% 29.82 in 7.0 mi WNW 6.9 mph - N/A   Clear
7:55 AM 78.3 °F - 72.1 °F 81% 29.82 in 10.0 mi NW 5.8 mph - N/A   Clear
8:15 AM 78.8 °F - 72.7 °F 81% 29.82 in 10.0 mi NW 6.9 mph - N/A   Mostly Cloudy
8:35 AM 79.2 °F - 73.4 °F 82% 29.82 in 7.0 mi NNW 8.1 mph - N/A   Mostly Cloudy
8:55 AM 80.1 °F 84.8 °F 74.5 °F 83% 29.82 in 5.0 mi NW 9.2 mph - N/A   Haze
9:15 AM 81.1 °F 86.8 °F 74.5 °F 80% 29.82 in 5.0 mi NNW 8.1 mph - N/A   Haze
9:35 AM 81.7 °F 87.6 °F 74.1 °F 78% 29.82 in 7.0 mi NW 9.2 mph - N/A   Scattered Clouds
9:55 AM 83.3 °F 90.8 °F 75.2 °F 76% 29.83 in 7.0 mi NW 13.8 mph - N/A   Scattered Clouds
10:15 AM 82.9 °F 89.9 °F 74.8 °F 76% 29.83 in 7.0 mi WNW 13.8 mph 18.4 mph N/A   Scattered Clouds
10:35 AM 83.7 °F 91.0 °F 74.5 °F 74% 29.83 in 10.0 mi NW 11.5 mph 17.3 mph N/A   Scattered Clouds
10:55 AM 85.6 °F 93.4 °F 74.1 °F 68% 29.83 in 10.0 mi NW 11.5 mph 17.3 mph N/A   Clear
11:15 AM 85.6 °F 92.2 °F 72.9 °F 65% 29.83 in 10.0 mi NW 13.8 mph 20.7 mph N/A   Clear
11:35 AM 86.7 °F 93.3 °F 72.1 °F 62% 29.84 in 10.0 mi NW 15.0 mph 20.7 mph N/A   Clear
11:55 AM 87.1 °F 93.6 °F 72.0 °F 61% 29.84 in 10.0 mi NW 12.7 mph 18.4 mph N/A   Clear
12:15 PM 88.0 °F 94.2 °F 71.6 °F 58% 29.84 in 10.0 mi NW 11.5 mph 20.7 mph N/A   Clear
12:35 PM 88.0 °F 93.8 °F 70.9 °F 57% 29.84 in 10.0 mi NW 16.1 mph 19.6 mph N/A   Clear
12:55 PM 87.8 °F 92.6 °F 69.8 °F 55% 29.84 in 10.0 mi NW 18.4 mph 25.3 mph N/A   Clear
1:15 PM 88.2 °F 92.9 °F 69.6 °F 54% 29.84 in 10.0 mi WNW 11.5 mph 21.9 mph N/A   Clear
1:35 PM 88.5 °F 93.1 °F 69.6 °F 53% 29.84 in 10.0 mi NW 11.5 mph 19.6 mph N/A   Clear
1:55 PM 89.1 °F 93.7 °F 69.1 °F 52% 29.85 in 10.0 mi NW 15.0 mph 24.2 mph N/A   Clear
2:15 PM 88.2 °F 92.9 °F 69.6 °F 54% 29.86 in 10.0 mi WNW 17.3 mph 24.2 mph N/A   Clear
2:35 PM 88.9 °F 94.2 °F 70.3 °F 54% 29.85 in 10.0 mi WNW 11.5 mph 20.7 mph N/A   Clear
2:55 PM 87.6 °F 90.8 °F 67.5 °F 51% 29.84 in 10.0 mi WNW 11.5 mph - N/A   Clear
3:15 PM 88.0 °F 92.5 °F 69.3 °F 54% 29.85 in 10.0 mi West 12.7 mph - N/A   Clear
3:35 PM 88.5 °F 92.7 °F 68.9 °F 52% 29.84 in 10.0 mi WNW 16.1 mph 20.7 mph N/A   Clear
3:55 PM 88.5 °F 92.7 °F 68.7 °F 52% 29.83 in 10.0 mi WNW 13.8 mph 20.7 mph N/A   Clear
4:15 PM 88.5 °F 92.3 °F 68.2 °F 51% 29.83 in 10.0 mi WNW 13.8 mph 19.6 mph N/A   Clear
4:35 PM 88.5 °F 91.6 °F 67.1 °F 49% 29.82 in 10.0 mi WNW 15.0 mph 18.4 mph N/A   Clear
6:15 PM 86.2 °F 89.1 °F 67.1 °F 53% 29.77 in 10.0 mi West 13.8 mph 18.4 mph N/A   Clear
6:35 PM 86.0 °F 89.4 °F 68.0 °F 55% 29.76 in 10.0 mi West 12.7 mph 18.4 mph N/A   Clear
6:55 PM 84.6 °F 87.9 °F 68.2 °F 58% 29.77 in 10.0 mi West 12.7 mph - N/A   Clear
7:15 PM 83.3 °F 86.4 °F 68.2 °F 60% 29.76 in 10.0 mi West 11.5 mph - N/A   Clear
7:35 PM 83.3 °F 86.6 °F 68.4 °F 61% 29.76 in 10.0 mi West 9.2 mph - N/A   Clear
7:55 PM 81.9 °F 85.2 °F 69.3 °F 65% 29.76 in 10.0 mi West 6.9 mph - N/A   Clear
8:15 PM 79.9 °F - 69.1 °F 69% 29.76 in 10.0 mi WNW 6.9 mph - N/A   Clear
8:35 PM 77.9 °F - 69.8 °F 76% 29.76 in 10.0 mi WNW 4.6 mph - N/A   Clear
8:55 PM 77.4 °F - 69.8 °F 77% 29.76 in 10.0 mi WNW 5.8 mph - N/A   Clear
9:15 PM 77.4 °F - 68.4 °F 74% 29.76 in 10.0 mi WNW 5.8 mph - N/A   Clear
9:35 PM 76.5 °F - 68.0 °F 75% 29.76 in 10.0 mi WNW 8.1 mph - N/A   Clear
9:55 PM 75.6 °F - 67.6 °F 76% 29.77 in 10.0 mi WNW 8.1 mph - N/A   Clear
10:15 PM 75.4 °F - 67.5 °F 76% 29.77 in 10.0 mi West 8.1 mph - N/A   Clear
11:15 PM 73.8 °F - 66.9 °F 79% 29.79 in 10.0 mi West 6.9 mph - N/A   Clear
11:35 PM 72.9 °F - 66.7 °F 81% 29.79 in 10.0 mi West 5.8 mph - N/A   Clear
11:55 PM 72.3 °F - 66.7 °F 83% 29.79 in 10.0 mi West 5.8 mph - N/A   Clear